This is the latest recevied weather packets stored in our database for station/object N6OL. If no packets are shown the sender has not sent any weather packets the latest 10 day(s).
| Time | Temp. | Humidity | Pressure | Rain* | Wind** | Luminosity | Snow |
|---|---|---|---|---|---|---|---|
| 1777884924 | 12.22° C | 84% | 1014.1 hPa | 0 mm | - | 0 W/m² | - |
| 1777884303 | 12.22° C | 83% | 1014.2 hPa | 0 mm | - | 0 W/m² | - |
| 1777884003 | 12.22° C | 83% | 1014.3 hPa | 0 mm | - | 0 W/m² | - |
| 1777880703 | 12.78° C | 82% | 1014.5 hPa | 0 mm | - | 0 W/m² | - |
| 1777879524 | 12.78° C | 81% | 1014.5 hPa | 0 mm | - | 0 W/m² | - |
| 1777879203 | 12.78° C | 81% | 1014.6 hPa | 0 mm | - | 0 W/m² | - |
| 1777877103 | 12.78° C | 81% | 1014.6 hPa | 0 mm | - | 0 W/m² | - |
| 1777875903 | 12.78° C | 82% | 1014.6 hPa | 0 mm | - | 0 W/m² | - |
| 1777873503 | 12.78° C | 81% | 1014.4 hPa | 0 mm | - | 0 W/m² | - |
| 1777871703 | 13.33° C | 79% | 1013.9 hPa | 0 mm | - | 0 W/m² | - |
| 1777864203 | 13.89° C | 74% | 1012.5 hPa | 0 mm | - | 0 W/m² | - |
| 1777863903 | 14.44° C | 73% | 1012.5 hPa | 0 mm | - | 0 W/m² | - |
| 1777862403 | 14.44° C | 71% | 1012.7 hPa | 0 mm | - | 25 W/m² | - |
| 1777857603 | 15.56° C | 67% | 1012.6 hPa | 0 mm | - | 181 W/m² | - |
| 1777857003 | 16.11° C | 66% | 1012.6 hPa | 0 mm | - | 371 W/m² | - |
| 1777856703 | 16.11° C | 66% | 1012.5 hPa | 0 mm | - | 160 W/m² | - |
| 1777854003 | 16.67° C | 66% | 1012.1 hPa | 0 mm | - | 288 W/m² | - |
| 1777849803 | 16.67° C | 65% | 1012.3 hPa | 0 mm | - | 251 W/m² | - |
| 1777848303 | 16.67° C | 64% | 1012.4 hPa | 0 mm | - | 218 W/m² | - |
| 1777848003 | 16.67° C | 64% | 1012.5 hPa | 0 mm | - | 211 W/m² | - |
| 1777847103 | 16.67° C | 63% | 1012.5 hPa | 0 mm | - | 211 W/m² | - |
| 1777846203 | 17.22° C | 62% | 1012.4 hPa | 0 mm | - | 227 W/m² | - |
| 1777845603 | 17.22° C | 62% | 1012.3 hPa | 0 mm | - | 251 W/m² | - |
| 1777843503 | 17.78° C | 60% | 1012.4 hPa | 0 mm | - | 613 W/m² | - |
| 1777841703 | 18.33° C | 61% | 1012.4 hPa | 0 mm | - | 642 W/m² | - |
* Rain latest hour (hover to see other rain measurements)
** Current wind speed in m/s (hover to see current wind gust speed)